Location: Newark
(35.8833°N, 14.5000°E)
Time: 22:28:43
(UTC+00:00)

BEESAT - Pass Details

Date: 20 November 2019
Orbit: 700 x 709 km, 98.6° (Epoch: 06 December)

Event Time Altitude Azimuth Distance (km) Brightness Sun altitude
Rises 02:47:04 0° 134° (SE) 3,077 ? -35.4°
Reaches altitude 10° 02:49:40 10° 121° (ESE) 2,162 ? -34.9°
Maximum altitude 02:53:25 24° 68° (ENE) 1,440 ? -34.1°
Enters shadow 02:54:53 21° 41° (NE) 1,575 ? -33.8°
